Flag for Chile Weather past 2 weeks in Concepción, Chile

Now
48 °F

Partly cloudy.


Feels Like: 48 °F
Forecast: 49 / 54 °F
Wind: 2 mph from Southeast

Location: Concepcion Airport

Current Time: Aug 22, 2014 at 2:04:38 AM

Latest Report: Aug 22, 2014 at 1:00 AM


Visibility: N/A

Pressure: 30.01 "Hg

Humidity: 94%

Dew point: 46 °F

Location of ConcepciónLocation

Historic Weather in Concepción — Graph

°F

Concepción temperature yesterday

Maximum temperature yesterday: 57 °F (at 12:00 PM)
Minimum temperature yesterday: 48 °F (at 12:00 AM)
Average temperature yesterday: 53 °F

Past Weeks' High & Low Weather Summary

 TemperatureHumidityPressure
High68 °F (Aug 16, 2:00 PM)100% (Aug 9, 6:00 AM)30.51 "Hg (Aug 9, 6:00 AM)
Low36 °F (Aug 11, 6:00 AM)36% (Aug 13, 2:00 PM)29.89 "Hg (Aug 18, 2:00 PM)
Average50 °F80%30.14 "Hg
* Reported Aug 7 1:00 AM — Aug 22 1:00 AM, Concepción, Weather by CustomWeather, © 2014

Note: Actual official high and low records may vary slightly from our data, if they occured in-between our weather recording intervals... More about our weather records

Advertising

Concepción weather history for previous 24 hours

 ConditionsComfort  
Time TempWeatherWind HumidityBarometerVisibility
1:00 AM
Aug 22
48 °FPartly cloudy.2 mph94%30.01 "HgN/A
12:00 AM50 °FOvercast.No wind88%30.04 "HgN/A
11:00 PM
Aug 21
48 °FOvercast.No wind94%30.04 "HgN/A
10:00 PM48 °FPassing clouds.2 mph94%30.04 "HgN/A
9:00 PM48 °FPassing clouds.2 mph87%30.04 "HgN/A
8:00 PM50 °FClear.2 mph88%30.04 "Hg10 mi
7:00 PM52 °FPassing clouds.5 mph82%30.04 "HgN/A
6:00 PM55 °FClear.6 mph72%30.04 "Hg10 mi
5:00 PM57 °FSunny.7 mph67%30.04 "Hg10 mi
4:00 PM57 °FPassing clouds.5 mph67%30.04 "HgN/A
3:00 PM57 °FScattered clouds.7 mph67%30.07 "HgN/A
2:00 PM57 °FPartly sunny.10 mph67%30.07 "HgN/A
1:00 PM57 °FPartly sunny.12 mph67%30.09 "HgN/A
12:00 PM57 °FBroken clouds.9 mph67%30.09 "HgN/A
11:00 AM55 °FMore clouds than sun.7 mph67%30.12 "HgN/A
10:00 AM55 °FBroken clouds.6 mph72%30.12 "HgN/A
9:00 AM54 °FMore clouds than sun.6 mph77%30.09 "HgN/A
8:00 AM52 °FMore clouds than sun.6 mph82%30.09 "HgN/A
7:00 AM50 °FMore clouds than sun.2 mph94%30.09 "HgN/A
6:00 AM52 °FMostly cloudy.No wind88%30.07 "HgN/A
5:00 AM50 °FMostly cloudy.2 mph88%30.07 "Hg5 mi
4:00 AM50 °FMostly cloudy.No wind94%30.07 "Hg4 mi
3:00 AM50 °FOvercast.No wind94%30.07 "Hg4 mi
2:00 AM50 °FPassing clouds.2 mph94%30.09 "Hg4 mi
Weather by CustomWeather, © 2014

See weather overviewHow to use our weather pages